AV751 Weather Reports


Display with metric or nautical units.
time (UTC)temp
F
wind
direction
speed
MPH
gust
MPH
rain 1hr
in
rain 24hr
in
rain mn
in
humidity
%
barometer
mb
20260506044004 45 11 0.0 2.0 0.00 0.00 0.00 78 996.0
20260506043504 45 25 2.0 2.0 0.00 0.00 0.00 79 995.9
20260506043004 45 25 1.0 2.0 0.00 0.00 0.00 79 995.9
20260506042504 45 32 1.0 2.0 0.00 0.00 0.00 79 995.9
20260506042004 45 27 1.0 2.0 0.00 0.00 0.00 79 995.8
20260506041504 45 340 0.0 2.0 0.00 0.00 0.00 79 995.8
20260506041004 45 347 1.0 2.0 0.00 0.00 0.00 78 996.0
20260506040504 45 22 1.0 2.0 0.00 0.00 0.00 78 995.8
20260506040004 46 10 0.0 2.0 0.00 0.00 0.00 72 995.8
20260506035716 46 24 0.0 2.0 0.00 0.00 0.00 72 995.7
20260506035004 46 66 1.0 3.0 0.00 0.00 0.00 73 995.8
20260506034504 46 12 2.0 3.0 0.00 0.00 0.00 73 995.7
20260506034004 46 9 1.0 2.0 0.00 0.00 0.00 73 995.8
20260506033504 46 65 0.0 2.0 0.00 0.00 0.00 74 995.9
20260506033005 46 110 1.0 2.0 0.00 0.00 0.00 74 995.9
20260506032504 46 112 0.0 2.0 0.00 0.00 0.00 74 995.9
20260506032217 46 108 1.0 2.0 0.00 0.00 0.00 74 995.8
20260506031504 46 347 0.0 2.0 0.00 0.00 0.00 74 996.0
20260506031004 46 359 0.0 2.0 0.00 0.00 0.00 74 995.9
20260506030504 46 20 1.0 2.0 0.00 0.00 0.00 74 995.8
20260506030214 46 7 1.0 2.0 0.00 0.00 0.00 74 996.1
20260506025504 46 42 0.0 2.0 0.00 0.00 0.00 74 996.0
20260506025004 46 349 0.0 2.0 0.00 0.00 0.00 74 995.8
20260506024504 46 352 1.0 2.0 0.00 0.00 0.00 74 995.8
20260506024004 46 49 1.0 3.0 0.00 0.00 0.00 74 995.7
20260506023504 46 33 0.0 3.0 0.00 0.00 0.00 74 995.8
20260506023004 46 358 0.0 2.0 0.00 0.00 0.00 74 995.8
20260506022504 46 353 1.0 2.0 0.00 0.00 0.00 74 996.0
20260506022217 46 359 2.0 2.0 0.00 0.00 0.00 73 995.8
20260506021504 46 18 2.0 2.0 0.00 0.00 0.00 73 995.9
20260506021004 46 11 1.0 2.0 0.00 0.00 0.00 73 996.1
20260506020504 46 5 2.0 2.0 0.00 0.00 0.00 73 995.9
20260506020005 46 359 0.0 2.0 0.00 0.00 0.00 73 995.9
20260506015504 46 12 1.0 2.0 0.00 0.00 0.00 72 996.0
20260506015215 46 43 0.0 2.0 0.00 0.00 0.00 72 996.0
20260506014713 46 42 0.0 2.0 0.00 0.00 0.00 72 995.9
20260506014004 47 23 2.0 2.0 0.00 0.00 0.00 72 996.0
20260506013504 47 26 1.0 2.0 0.00 0.00 0.00 72 996.1
20260506013004 47 58 0.0 2.0 0.00 0.00 0.00 71 996.0
20260506012504 47 67 1.0 2.0 0.00 0.00 0.00 71 995.9
20260506012004 47 58 0.0 2.0 0.00 0.00 0.00 71 996.0
20260506011504 47 45 1.0 2.0 0.00 0.00 0.00 71 996.1
20260506011004 47 65 0.0 2.0 0.00 0.00 0.00 70 996.1
20260506010504 47 86 0.0 3.0 0.00 0.00 0.00 70 996.2
20260506010004 47 65 2.0 3.0 0.00 0.00 0.00 70 996.1
20260506005504 47 6 0.0 2.0 0.00 0.00 0.00 70 995.9
20260506005004 47 24 1.0 2.0 0.00 0.00 0.00 70 995.9
20260506004504 47 53 2.0 2.0 0.00 0.00 0.00 70 996.0
20260506004004 47 22 1.0 2.0 0.00 0.00 0.00 70 996.1
20260506003504 47 7 1.0 3.0 0.00 0.00 0.00 69 996.0
20260506003004 47 10 1.0 4.0 0.00 0.00 0.00 69 996.1
20260506002504 47 24 0.0 5.0 0.00 0.00 0.00 69 996.0
20260506002004 47 22 2.0 5.0 0.00 0.00 0.00 69 996.2
20260506001504 48 39 2.0 4.0 0.00 0.00 0.00 69 996.2
20260506001004 48 72 2.0 4.0 0.00 0.00 0.00 69 996.1
20260506000504 48 44 1.0 3.0 0.00 0.00 0.00 69 996.0
20260506000004 48 351 2.0 4.0 0.00 0.00 0.00 69 996.0
20260505235504 48 333 2.0 4.0 0.00 0.00 0.00 69 995.9
20260505235004 48 34 1.0 4.0 0.00 0.00 0.00 69 996.2
20260505234504 48 34 1.0 2.0 0.00 0.00 0.00 69 995.9
20260505234004 48 24 1.0 3.0 0.00 0.00 0.00 68 996.1
20260505233504 48 12 2.0 3.0 0.00 0.00 0.00 68 996.1
20260505233004 48 6 2.0 3.0 0.00 0.00 0.00 68 996.1
20260505232504 48 35 1.0 4.0 0.00 0.00 0.00 68 996.1
20260505232214 48 55 2.0 4.0 0.00 0.00 0.00 68 996.2
20260505231504 48 30 2.0 4.0 0.00 0.00 0.00 69 996.3
20260505231004 49 11 2.0 2.0 0.00 0.00 0.00 69 996.1
20260505230504 49 37 1.0 3.0 0.00 0.00 0.00 68 996.3
20260505230005 49 44 1.0 3.0 0.00 0.00 0.00 68 996.3
20260505225504 49 41 2.0 3.0 0.00 0.00 0.00 68 996.2
20260505225004 49 67 2.0 4.0 0.00 0.00 0.00 68 996.2
20260505224504 49 66 2.0 4.0 0.00 0.00 0.00 68 995.8
20260505224218 49 47 3.0 6.0 0.00 0.00 0.00 68 996.1
20260505223716 49 28 1.0 6.0 0.00 0.00 0.00 68 996.2
20260505223004 49 52 2.0 5.0 0.00 0.00 0.00 70 996.1
20260505222717 49 43 4.0 5.0 0.00 0.00 0.00 70 996.0
20260505222004 49 17 2.0 5.0 0.00 0.00 0.00 70 996.1
20260505221504 49 36 2.0 5.0 0.00 0.00 0.00 70 996.0
20260505221004 49 40 2.0 6.0 0.00 0.00 0.00 70 996.1
20260505220504 49 41 3.0 7.0 0.00 0.00 0.00 70 996.1
20260505220004 49 27 5.0 7.0 0.00 0.00 0.00 70 996.0
20260505215504 50 38 4.0 8.0 0.00 0.00 0.00 70 996.0
20260505215004 50 34 3.0 8.0 0.00 0.00 0.00 70 996.2
20260505214504 50 23 3.0 5.0 0.00 0.00 0.00 70 996.0
20260505214004 50 33 2.0 5.0 0.00 0.00 0.00 70 996.1
20260505213504 50 25 3.0 6.0 0.00 0.00 0.00 70 995.9
20260505213215 50 38 2.0 6.0 0.00 0.00 0.00 70 996.0
20260505212504 50 41 2.0 4.0 0.00 0.00 0.00 70 996.0
20260505212004 50 38 3.0 4.0 0.00 0.00 0.00 70 996.1
20260505211504 50 33 2.0 4.0 0.00 0.00 0.00 70 995.9
20260505211004 51 28 2.0 5.0 0.00 0.00 0.00 69 996.0
20260505210504 51 12 4.0 5.0 0.00 0.00 0.00 69 996.0
20260505210004 51 39 3.0 6.0 0.00 0.00 0.00 69 995.8
20260505205504 51 62 1.0 6.0 0.00 0.00 0.00 68 996.1
20260505205213 51 49 2.0 4.0 0.00 0.00 0.00 68 996.0
20260505204716 51 34 2.0 3.0 0.00 0.00 0.00 67 995.8
20260505204004 51 67 1.0 8.0 0.00 0.00 0.00 66 995.8
20260505203504 51 67 5.0 8.0 0.00 0.00 0.00 66 995.7
20260505203004 51 57 3.0 6.0 0.00 0.00 0.00 66 995.8
20260505202504 51 50 2.0 4.0 0.00 0.00 0.00 67 995.7
20260505202216 51 62 3.0 4.0 0.00 0.00 0.00 67 995.8
20260505201504 51 50 3.0 8.0 0.00 0.00 0.00 67 995.6
20260505201004 52 41 2.0 8.0 0.00 0.00 0.00 68 995.5
20260505200504 52 35 2.0 8.0 0.00 0.00 0.00 69 995.6
20260505200004 52 36 3.0 8.0 0.00 0.00 0.00 70 995.4
20260505195504 52 42 2.0 8.0 0.00 0.00 0.00 70 995.6
20260505195004 52 43 4.0 8.0 0.00 0.00 0.00 70 995.3
20260505194504 52 52 4.0 6.0 0.00 0.00 0.00 71 995.4
20260505194004 52 61 3.0 9.0 0.00 0.00 0.00 71 995.2
20260505193504 52 66 4.0 9.0 0.00 0.00 0.00 71 995.2
20260505193004 53 56 4.0 9.0 0.00 0.00 0.00 71 995.3
20260505192504 53 29 2.0 8.0 0.00 0.00 0.00 71 995.2
20260505192004 53 21 3.0 8.0 0.00 0.00 0.00 71 994.9
20260505191504 53 49 3.0 6.0 0.00 0.00 0.00 71 995.0
20260505191004 53 74 4.0 7.0 0.00 0.00 0.00 71 994.9
20260505190504 53 39 4.0 7.0 0.00 0.00 0.00 71 994.9
20260505190005 53 29 4.0 6.0 0.00 0.00 0.00 71 994.8
20260505185717 53 40 3.0 6.0 0.00 0.00 0.00 71 994.8
20260505185004 54 57 4.0 5.0 0.00 0.00 0.00 70 994.6
20260505184718 54 52 3.0 5.0 0.00 0.00 0.00 70 994.5
20260505184004 54 31 2.0 4.0 0.00 0.00 0.00 70 994.5
20260505183504 54 33 3.0 4.0 0.00 0.00 0.00 70 994.5
20260505183004 54 14 2.0 3.0 0.00 0.00 0.00 70 994.5
20260505182504 54 15 2.0 5.0 0.00 0.00 0.00 70 994.5
20260505182004 54 20 2.0 8.0 0.00 0.00 0.00 70 994.4
20260505181715 54 22 2.0 8.0 0.00 0.00 0.00 70 994.3
20260505181213 54 63 2.0 6.0 0.00 0.00 0.00 65 994.3
20260505180504 55 53 4.0 6.0 0.00 0.00 0.00 65 994.4
20260505180214 55 31 4.0 6.0 0.00 0.00 0.00 64 994.4
20260505175504 55 42 4.0 8.0 0.00 0.00 0.00 64 994.3
20260505175004 56 58 4.0 7.0 0.00 0.00 0.00 63 994.0
20260505174504 57 36 2.0 6.0 0.00 0.00 0.00 60 994.0
20260505174004 57 8 3.0 4.0 0.00 0.00 0.00 52 993.8
20260505173504 58 357 1.0 2.0 0.00 0.00 0.00 50 993.8
20260505173004 58 342 1.0 2.0 0.00 0.00 0.00 51 993.8
20260505172715 58 344 1.0 2.0 0.00 0.00 0.00 51 993.8
20260505172004 58 351 2.0 2.0 0.00 0.00 0.00 51 993.7
20260505171504 58 328 1.0 3.0 0.00 0.00 0.00 51 993.7
20260505171004 59 334 2.0 3.0 0.00 0.00 0.00 50 993.7
20260505170504 59 341 2.0 3.0 0.00 0.00 0.00 50 993.9
20260505170004 59 342 2.0 3.0 0.00 0.00 0.00 50 993.6
20260505165504 59 306 1.0 4.0 0.00 0.00 0.00 50 993.6
20260505165004 60 299 2.0 4.0 0.00 0.00 0.00 50 993.7
20260505164504 60 5 2.0 2.0 0.00 0.00 0.00 51 993.6
20260505164004 59 60 1.0 2.0 0.00 0.00 0.00 51 993.9
20260505163504 59 67 1.0 2.0 0.00 0.00 0.00 51 993.8
20260505163004 59 42 2.0 3.0 0.00 0.00 0.00 52 993.8
20260505162504 59 19 2.0 3.0 0.00 0.00 0.00 51 993.9
20260505162004 59 4 2.0 3.0 0.00 0.00 0.00 51 993.7
20260505161504 59 3 2.0 3.0 0.00 0.00 0.00 50 993.8
20260505161004 60 332 2.0 3.0 0.00 0.00 0.00 50 993.9
20260505160504 60 297 1.0 3.0 0.00 0.00 0.00 50 993.7
20260505153004 60 290 1.0 2.0 0.00 0.00 0.00 50 993.7
20260505152716 60 304 0.0 2.0 0.00 0.00 0.00 50 993.7
20260505152214 60 327 2.0 2.0 0.00 0.00 0.00 50 993.7
20260505151504 60 14 0.0 3.0 0.00 0.00 0.00 48 993.5
20260505151004 60 82 1.0 2.0 0.00 0.00 0.00 49 993.6
20260505150504 61 93 0.0 2.0 0.00 0.00 0.00 50 993.7
20260505140504 61 164 0.0 3.0 0.00 0.00 0.00 47 993.7
20260505125004 60 348 1.0 4.0 0.00 0.00 0.00 51 993.8
20260505124504 60 321 2.0 3.0 0.00 0.00 0.00 50 993.6
20260505124004 60 290 1.0 3.0 0.00 0.00 0.00 51 993.6
20260505123504 60 347 1.0 3.0 0.00 0.00 0.00 51 993.6
20260505123004 60 13 2.0 4.0 0.00 0.00 0.00 50 993.7
20260505122504 61 10 1.0 4.0 0.00 0.00 0.00 48 993.6
20260505122004 61 29 2.0 4.0 0.00 0.00 0.00 47 993.8
20260505121504 62 39 2.0 4.0 0.00 0.00 0.00 49 993.6
20260505121004 62 23 3.0 4.0 0.00 0.00 0.00 50 993.4
20260505120715 62 8 1.0 2.0 0.00 0.00 0.00 50 993.8
20260505120005 62 123 0.0 2.0 0.00 0.00 0.00 50 993.8
20260505115504 62 348 0.0 2.0 0.00 0.00 0.00 51 993.6
20260505115004 62 346 2.0 2.0 0.00 0.00 0.00 51 993.9
20260505114504 61 346 1.0 2.0 0.00 0.00 0.00 51 993.9
20260505114004 61 358 1.0 3.0 0.00 0.00 0.00 51 993.8
20260505113504 60 43 1.0 4.0 0.00 0.00 0.00 51 993.8
20260505113004 60 36 1.0 4.0 0.00 0.00 0.00 50 993.7
20260505112504 60 352 2.0 3.0 0.00 0.00 0.00 50 993.8
20260505112004 60 351 1.0 3.0 0.00 0.00 0.00 50 994.1
20260505111504 60 352 1.0 2.0 0.00 0.00 0.00 51 994.0
20260505111004 60 336 0.0 2.0 0.00 0.00 0.00 51 994.0
20260505110504 60 310 1.0 2.0 0.00 0.00 0.00 52 994.0
20260505102004 58 9 1.0 3.0 0.00 0.00 0.00 53 994.3
20260505101504 58 135 1.0 2.0 0.00 0.00 0.00 55 994.3
20260505101004 59 54 0.0 2.0 0.00 0.00 0.00 56 994.2
20260505100504 59 4 1.0 2.0 0.00 0.00 0.00 55 994.4
20260505100004 58 1 1.0 3.0 0.00 0.00 0.00 54 994.3
20260505095504 58 358 1.0 3.0 0.00 0.00 0.00 54 994.3
20260505095004 58 354 2.0 4.0 0.00 0.00 0.00 52 994.5
20260505094504 58 337 1.0 4.0 0.00 0.00 0.00 52 994.2
20260505094004 59 342 2.0 5.0 0.00 0.00 0.00 52 994.4
20260505093504 59 3 2.0 5.0 0.00 0.00 0.00 53 994.5
20260505093004 59 7 2.0 4.0 0.00 0.00 0.00 54 994.6
20260505092504 59 358 3.0 5.0 0.00 0.00 0.00 54 994.6
20260505092004 58 10 2.0 5.0 0.00 0.00 0.00 55 994.6
20260505091504 58 35 2.0 6.0 0.00 0.00 0.00 55 994.6
20260505091004 58 34 1.0 6.0 0.00 0.00 0.00 56 994.6
20260505090504 57 9 1.0 5.0 0.00 0.00 0.00 56 994.6
20260505090004 57 4 3.0 4.0 0.00 0.00 0.00 57 994.7
20260505085504 57 354 3.0 4.0 0.00 0.00 0.00 58 994.5
20260505085004 57 357 2.0 4.0 0.00 0.00 0.00 59 994.6
20260505084504 56 344 2.0 3.0 0.00 0.00 0.00 60 994.6
20260505084217 56 340 2.0 3.0 0.00 0.00 0.00 61 994.7
20260505083504 56 13 1.0 3.0 0.00 0.00 0.00 63 994.8
20260505083004 56 24 2.0 4.0 0.00 0.00 0.00 64 994.7
20260505082504 55 27 2.0 4.0 0.00 0.00 0.00 66 994.8
20260505082214 55 33 2.0 4.0 0.00 0.00 0.00 67 994.9
20260505081504 55 313 2.0 2.0 0.00 0.00 0.00 71 994.9
20260505081215 54 233 0.0 2.0 0.00 0.00 0.00 75 994.9
20260505080504 54 199 1.0 2.0 0.00 0.00 0.00 79 995.0
20260505080004 54 211 0.0 2.0 0.00 0.00 0.00 82 995.0
20260505075504 53 216 1.0 2.0 0.00 0.00 0.00 87 995.1
20260505075004 53 171 1.0 2.0 0.00 0.00 0.00 90 995.1
20260505074504 52 169 0.0 2.0 0.00 0.00 0.00 93 995.1
20260505074004 51 161 1.0 2.0 0.00 0.00 0.00 95 995.1
20260505073504 51 191 0.0 2.0 0.00 0.00 0.00 96 995.2
20260505073004 50 222 1.0 2.0 0.00 0.00 0.00 97 995.2
20260505072504 49 200 0.0 2.0 0.00 0.00 0.00 98 995.3
20260505072004 48 159 0.0 2.0 0.00 0.00 0.00 98 995.2
20260505071504 48 147 1.0 2.0 0.00 0.00 0.00 98 995.6
20260505071004 48 252 1.0 1.0 0.00 0.00 0.00 98 995.6
20260505070504 47 315 0.0 1.0 0.00 0.00 0.00 98 995.4
20260505070005 47 291 0.0 1.0 0.00 0.00 0.00 98 995.6
20260505065714 47 239 0.0 2.0 0.00 0.00 0.00 98 995.4
20260505065217 46 217 0.0 2.0 0.00 0.00 0.00 98 995.6
20260505064504 46 219 0.0 2.0 0.00 0.00 0.00 98 995.7
20260505064004 46 152 1.0 2.0 0.00 0.00 0.00 98 995.5
20260505063504 46 131 0.0 2.0 0.00 0.00 0.00 97 995.7
20260505063004 46 243 0.0 1.0 0.00 0.00 0.00 97 995.6
20260505062504 45 142 0.0 2.0 0.00 0.00 0.00 99 995.7
20260505062004 45 155 0.0 2.0 0.00 0.00 0.00 99 995.7
20260505061504 45 180 0.0 1.0 0.00 0.00 0.00 99 995.9
20260505061216 45 180 0.0 1.0 0.00 0.00 0.00 99 996.0
20260505060714 45 270 0.0 1.0 0.00 0.00 0.00 99 995.8
20260505060004 44 270 0.0 1.0 0.00 0.00 0.00 99 995.7
20260505055504 44 194 0.0 2.0 0.00 0.00 0.00 99 995.8
20260505055004 44 162 0.0 2.0 0.00 0.00 0.00 99 995.8
20260505054504 43 135 0.0 2.0 0.00 0.00 0.00 99 995.9
20260505054004 43 0 0.0 0.0 0.00 0.00 0.00 99 995.6
20260505053717 43 0 0.0 0.0 0.00 0.00 0.00 99 995.8
20260505053004 43 0 0.0 0.0 0.00 0.00 0.00 99 995.8
20260505052718 43 0 0.0 0.0 0.00 0.00 0.00 99 995.6
20260505052004 43 0 0.0 0.0 0.00 0.00 0.00 99 995.9
20260505051504 43 0 0.0 0.0 0.00 0.00 0.00 99 995.6
20260505051216 43 0 0.0 0.0 0.00 0.00 0.00 99 995.7
20260505050504 43 0 0.0 0.0 0.00 0.00 0.00 99 995.6